This demonstration page uses our WeatherBlox Daily Observations layout. Learn more.

Left ArrowRight Arrow

44.8408, -93.29828

Hourly Observations for August 7, 2021

Temp ( °F °C ) Dew Point ( °F °C ) Humidity (%) Winds ( mph kmh ) Pressure ( in mb ) Visibility ( mi km ) Precip ( " mm )
12:53 am 00:53 Mostly Cloudy 73 22.8 65 18.3 76 76 SE 9 15 29.89 1012 7 11 0.00 0.00
1:53 am 01:53 Partly Cloudy 72 22.2 65 18.3 79 79 SE 7 11 29.90 1013 7 11 0.00 0.00
2:53 am 02:53 Mostly Cloudy 72 22.2 64 17.8 76 76 SE 9 15 29.86 1011 7 11 0.00 0.00
3:53 am 03:53 Cloudy 72 22.2 64 17.8 76 76 SE 10 17 29.84 1011 7 11 0.00 0.00
4:53 am 04:53 Cloudy 72 22.2 65 18.3 79 79 ESE 9 15 29.83 1010 7 11 0.00 0.00
5:49 am 05:49 Cloudy with Thunderstorms 72 22 66 19 83 83 S 7 11 29.86 1011 6 10 0.00 0.00
5:53 am 05:53 Cloudy with Strong Thunderstorms 71 21.7 67 19.4 87 87 WSW 23 37 29.92 1013 5 8 0.01 0.25
6:01 am 06:01 Cloudy with Strong Thunderstorms 68 20 67 19.4 96 96 W 13 20 29.89 1012 1 2 0.18 4.57
6:03 am 06:03 Cloudy with Strong Thunderstorms 68 20 66 18.9 93 93 W 13 20 29.88 1012 1 2 0.20 5.08
6:21 am 06:21 Cloudy with Thunderstorms 67 19.4 66 18.9 97 97 ESE 5 7 29.86 1011 2 3 0.38 9.65
6:29 am 06:29 Cloudy with Thunderstorms 67 19.4 66 18.9 97 97 ESE 9 15 29.85 1011 4 6 0.40 10.16
6:44 am 06:44 Cloudy with Nearby Thunderstorms 67 19.4 66 18.9 97 97 ESE 9 15 29.85 1011 5 8 0.42 10.67
6:51 am 06:51 Cloudy with Thunderstorms 66 19 66 19 100 100 SE 10 17 29.84 1011 5 8 0.43 10.92
6:53 am 06:53 Cloudy with Thunderstorms 67 19.4 66 18.9 97 97 SE 10 17 29.84 1011 5 8 0.43 10.92
7:25 am 07:25 Cloudy with Nearby Thunderstorms 68 20 67 19.4 96 96 ESE 9 15 29.84 1010 5 8 0.08 2.03
7:34 am 07:34 Cloudy with Light Rain 68 20 67 19.4 96 96 E 7 11 29.84 1010 5 8 0.11 2.79
7:53 am 07:53 Cloudy with Light Rain 68 20 67 19.4 96 96 ESE 9 15 29.83 1010 5 8 0.16 4.06
8:42 am 08:42 Mostly Cloudy with Light Rain 68 20 67 19.4 96 96 SE 8 13 29.81 1009 5 8 0.04 1.02
8:53 am 08:53 Mostly Cloudy with Light Rain 68 20 67 19.4 96 96 SE 9 15 29.81 1010 5 8 0.05 1.27
9:53 am 09:53 Mostly Cloudy with Light Rain 69 20.6 67 19.4 93 93 SE 10 17 29.82 1010 6 10 0.02 0.51
10:53 am 10:53 Cloudy with Mist and Fog 70 21.1 69 20.6 97 97 ESE 10 17 29.83 1010 6 10 0.00 0.00
11:27 am 11:27 Cloudy with Heavy Rain 70 21.1 69 20.6 97 97 E 9 15 29.81 1010 2 2 0.11 2.79
11:34 am 11:34 Cloudy with Nearby Thunderstorms 70 21.1 69 20.6 97 97 ESE 14 22 29.80 1009 2 2 0.19 4.83
11:43 am 11:43 Cloudy with Light Rain 70 21.1 68 20 93 93 ESE 14 22 29.80 1009 5 8 0.20 5.08
11:53 am 11:53 Cloudy with Mist and Fog 70 21.1 69 20.6 97 97 ESE 12 19 29.81 1010 6 10 0.20 5.08
12:53 pm 12:53 Cloudy 71 21.7 69 20.6 94 94 E 10 17 29.81 1009 7 11 0.00 0.00
1:00 pm 13:00 Cloudy 71 21.7 69 20.6 94 94 E 12 19 29.79 1009 7 11 0.00 0.00
1:53 pm 13:53 Cloudy 72 22.2 69 20.6 91 91 ENE 13 20 29.80 1009 7 11 0.00 0.00
2:00 pm 14:00 Cloudy 72 22.2 69 20.6 91 91 ENE 12 19 29.79 1009 7 11 0.00 0.00
2:53 pm 14:53 Cloudy with Light Rain 72 22.2 68 20 87 87 ESE 16 26 29.80 1009 8 13 0.00 0.00
3:09 pm 15:09 Cloudy with Light Rain 71 21.7 68 20 90 90 E 13 20 29.78 1009 6 10 0.00 0.00
3:53 pm 15:53 Cloudy 71 21.7 68 20 90 90 E 15 24 29.78 1009 9 14 0.00 0.00
4:53 pm 16:53 Cloudy 72 22.2 67 19.4 84 84 E 12 19 29.78 1009 10 16 0.00 0.00
5:53 pm 17:53 Cloudy 72 22.2 67 19.4 84 84 E 12 19 29.77 1008 10 16 0.00 0.00
6:53 pm 18:53 Cloudy 72 22.2 67 19.4 84 84 E 12 19 29.77 1008 10 16 0.00 0.00
7:53 pm 19:53 Cloudy 71 21.7 67 19.4 87 87 E 10 17 29.77 1008 10 16 0.00 0.00
8:53 pm 20:53 Cloudy 70 21.1 67 19.4 90 90 E 9 15 29.77 1008 10 16 0.00 0.00
9:53 pm 21:53 Cloudy 70 21.1 67 19.4 90 90 E 9 15 29.76 1008 10 16 0.00 0.00
10:38 pm 22:38 Cloudy 70 21.1 67 19.4 90 90 E 9 15 29.74 1007 10 16 0.00 0.00
10:53 pm 22:53 Cloudy 70 21.1 67 19.4 90 90 E 9 15 29.76 1008 10 16 0.00 0.00
11:53 pm 23:53 Cloudy 69 20.6 67 19.4 93 93 E 9 15 29.76 1008 10 16 0.00 0.00

Powered by AerisWeather